Location: Unspecified
(47.8330°N, 0.0000°E)
Time: 08:53:34
(UTC+00:00)

RS-15 - Visible Passes

Search period start: 18 August 2019 00:00
Search period end: 28 August 2019 00:00
Orbit: 1900 x 2145 km, 64.8° (Epoch: 17 August)

Date Brightness Start Highest point End Pass type
(mag) Time Alt. Az. Time Alt. Az. Time Alt. Az.
18 Aug 10.0 02:22:47 10° ESE 02:27:29 14° E 02:32:05 10° ENE visible
19 Aug 8.8 03:50:56 10° S 04:01:31 47° ESE 04:11:46 10° NE visible
20 Aug 9.1 03:15:57 10° S 03:25:51 37° ESE 03:35:26 10° NE visible
21 Aug 9.4 02:41:22 10° SSE 02:50:17 28° ESE 02:58:56 10° NE visible
22 Aug 9.6 02:07:22 10° SE 02:14:49 21° E 02:22:06 10° ENE visible
22 Aug 8.2 04:13:57 10° SSW 04:25:16 75° ESE 04:36:14 10° NE visible
23 Aug 9.8 01:34:20 10° ESE 01:39:29 14° E 01:44:33 10° ENE visible
23 Aug 8.4 03:38:19 10° SSW 03:49:22 61° ESE 04:00:06 10° NE visible
24 Aug 8.6 03:02:57 10° S 03:13:35 49° ESE 03:23:54 10° NE visible
25 Aug 8.9 02:28:00 10° S 02:37:54 38° ESE 02:47:36 10° NE visible
25 Aug 8.1 04:38:10 10° SW 04:49:30 74° NW 05:00:32 10° NE visible
26 Aug 9.2 01:53:47 11° SSE 02:02:20 29° ESE 02:11:08 10° NE visible
26 Aug 8.0 04:02:00 10° SW 04:13:22 88° NW 04:24:26 10° NE visible
27 Aug 9.4 01:19:30 11° SE 01:26:51 22° E 01:34:21 10° NE visible
27 Aug 8.1 03:27:18 14° SSW 03:37:22 78° ESE 03:48:20 10° NE visible
